Weather History for Rock Springs, WY

Change the Weather History Date:

Friday, January 25, 2013

  Actual Average Record
Temperature  
Mean Temperature 1 °C -6 °C  
Max Temperature 3 °C -1 °C 7 °C (1953)
Min Temperature -2 °C -11 °C -28 °C (1949)
Degree Days  
Heating Degree Days 32 44  
Month to date heating degree days 1207 1095  
Since 1 July heating degree days 4131 4447  
Cooling Degree Days 0 0  
Month to date cooling degree days 0 0  
Year to date cooling degree days 0 0  
Moisture  
Dew Point -2 °C    
Average Humidity 81    
Maximum Humidity 92    
Minimum Humidity 70    
Precipitation  
Precipitation 0.00 mm 0.25 mm 0.74 mm (1979)
Month to date precipitation T 0.35  
Year to date precipitation T 0.35  
Sea Level Pressure  
Sea Level Pressure 1024 hPa    
Wind  
Wind Speed 16 km/h (SW)    
Max Wind Speed 27 km/h    
Max Gust Speed 32 km/h    
Visibility 16 kilometers    
Events      
T = Trace of Precipitation, MM = Missing Value Source: NWS Daily Summary

Daily Weather History Graph

Daily Weather History Graph

Search for Another Location

Airport:

Trip Planner

Search our weather history database for the weather conditions in past years. The results will help you decide how hot, cold, wet, or windy it might be!

Date:

Astronomy

Jan. 25, 2013 Rise Set
Actual Time 7:34 AM MST 5:23 PM MST
Civil Twilight 7:04 AM MST 5:53 PM MST
Nautical Twilight 6:30 AM MST 6:27 PM MST
Astronomical Twilight 5:57 AM MST 6:59 PM MST
Moon 4:23 PM MST (1/25) 6:15 AM MST (1/25)
Length of Visible Light 10h 49m
Length of Day
9h 49m
Waxing Gibbous, 98% of the Moon is Illuminated
Jan 25
Waxing Gibbous
Jan 26
Full
Feb 3
Last Quarter
Feb 10
New
Feb 17
First Quarter

Hourly Weather History & Observations

Time (MST) Temp. Windchill Dew Point Humidity Pressure Visibility Wind Dir Wind Speed Gust Speed Precip Events Conditions
12:54 AM -1.7 °C -6.8 °C -2.8 °C 92% 1025.9 hPa 16.1 km SW 16.7 km/h / 4.6 m/s - N/A   Partly Cloudy
1:54 AM 0.0 °C -4.4 °C -1.1 °C 92% 1025.3 hPa 16.1 km SW 14.8 km/h / 4.1 m/s - N/A   Overcast
2:54 AM 0.0 °C -4.7 °C -1.7 °C 88% 1026.0 hPa 16.1 km WSW 16.7 km/h / 4.6 m/s - N/A   Overcast
3:54 AM 0.0 °C -4.4 °C -1.7 °C 88% 1025.4 hPa 16.1 km SW 14.8 km/h / 4.1 m/s - N/A   Overcast
5:54 AM 0.0 °C -4.7 °C -1.7 °C 88% 1024.9 hPa 16.1 km SW 16.7 km/h / 4.6 m/s - N/A   Overcast
6:54 AM 0.0 °C -4.7 °C -1.7 °C 88% 1025.4 hPa 16.1 km SSW 16.7 km/h / 4.6 m/s - N/A   Overcast
7:54 AM 0.6 °C -3.3 °C -1.7 °C 85% 1024.9 hPa 16.1 km SW 13.0 km/h / 3.6 m/s - N/A   Overcast
8:54 AM 1.1 °C -3.0 °C -1.7 °C 82% 1025.2 hPa 16.1 km WSW 14.8 km/h / 4.1 m/s - N/A   Overcast
9:54 AM 1.7 °C -1.9 °C -1.1 °C 82% 1025.1 hPa 16.1 km WSW 13.0 km/h / 3.6 m/s - N/A   Overcast
10:54 AM 2.2 °C -2.5 °C -1.7 °C 76% 1026.1 hPa 16.1 km WSW 20.4 km/h / 5.7 m/s - N/A   Overcast
11:54 AM 2.2 °C -2.5 °C -1.7 °C 76% 1025.3 hPa 16.1 km WSW 20.4 km/h / 5.7 m/s - N/A   Overcast
12:54 PM 2.8 °C -1.5 °C -1.7 °C 73% 1024.3 hPa 16.1 km WSW 18.5 km/h / 5.1 m/s - N/A   Overcast
1:54 PM 3.3 °C -1.1 °C -1.7 °C 70% 1022.4 hPa 16.1 km WSW 20.4 km/h / 5.7 m/s - N/A   Overcast
2:54 PM 2.8 °C -2.0 °C -2.2 °C 70% 1022.3 hPa 16.1 km WSW 22.2 km/h / 6.2 m/s - N/A   Overcast
3:54 PM 2.8 °C -0.9 °C -2.2 °C 70% 1022.1 hPa 16.1 km WSW 14.8 km/h / 4.1 m/s - N/A   Overcast
4:54 PM 2.2 °C -1.3 °C -2.2 °C 73% 1022.3 hPa 16.1 km WSW 13.0 km/h / 3.6 m/s - N/A   Overcast
5:54 PM 1.7 °C -1.9 °C -2.2 °C 76% 1022.2 hPa 16.1 km SW 13.0 km/h / 3.6 m/s - N/A   Overcast
6:54 PM 1.7 °C -1.9 °C -2.2 °C 76% 1022.2 hPa 16.1 km SW 13.0 km/h / 3.6 m/s - N/A   Overcast
7:54 PM 1.7 °C -2.6 °C -2.2 °C 76% 1021.6 hPa 16.1 km SW 16.7 km/h / 4.6 m/s - N/A   Overcast
8:54 PM 2.2 °C -1.6 °C -2.2 °C 73% 1021.3 hPa 16.1 km SW 14.8 km/h / 4.1 m/s - N/A   Overcast
9:54 PM 1.1 °C -3.0 °C -2.2 °C 79% 1021.1 hPa 16.1 km SW 14.8 km/h / 4.1 m/s - N/A   Overcast
10:54 PM 0.6 °C -3.3 °C -2.8 °C 78% 1020.7 hPa 16.1 km WSW 13.0 km/h / 3.6 m/s - N/A   Mostly Cloudy
11:54 PM 0.0 °C -4.0 °C -3.3 °C 79% 1020.8 hPa 16.1 km SW 13.0 km/h / 3.6 m/s - N/A   Mostly Cloudy